Preview of NWS' New Version of Forecast
This preview is not operational and should not be used for support decisions.

Regional Weather Roundup (RWR)

Issued by National Weather Service (NWS)

                            
000
ASUS45 KBOI 191710
RWRID 

IDAHO REGIONAL WEATHER ROUNDUP
NATIONAL WEATHER SERVICE BOISE ID
1000 AM MST TUE FEB 19 2019

NOTE: "FAIR" INDICATES FEW OR NO CLOUDS BELOW 12000 FEET
WITH NO SIGNIFICANT WEATHER AND/OR OBSTRUCTIONS TO VISIBILITY

IDZ012-014-191800-
SOUTHWEST IDAHO

  
CITY           SKY/WX    TMP DP  RH WIND       PRES   REMARKS
BOISE          CLOUDY    25  14  63 E5        30.12S WCI  19          
CALDWELL       CLOUDY    27  20  75 CALM      30.14F                  
MOUNTAIN HOME  CLOUDY    26  22  84 MISG      30.08S                  
$$

IDZ016-017-191800-
SOUTHCENTRAL IDAHO

  
CITY           SKY/WX    TMP DP  RH WIND       PRES   REMARKS
BURLEY         SUNNY     19  11  70 W9        30.02S WCI   8          
JEROME         SUNNY     17  12  80 W8        30.04S WCI   7          
TWIN FALLS     MOSUNNY   21  14  74 W17G24    30.03F WCI   7          
$$

IDZ019>023-191800-
SOUTHEAST IDAHO

  
CITY           SKY/WX    TMP DP  RH WIND       PRES   REMARKS
IDAHO FALLS    PTSUNNY    8   2  76 CALM      29.99S                  
POCATELLO      LGT SNOW  17  12  80 W12       30.01S WCI   4          
REXBURG        CLOUDY     7   0  73 CALM      29.96S                  
$$

IDZ006-010-011-018-031-032-191800-
CENTRAL IDAHO MOUNTAINS

  
CITY           SKY/WX    TMP DP  RH WIND       PRES   REMARKS
MCCALL         LGT SNOW  10   6  84 SE3       29.96F FOG              
HAILEY         MOSUNNY    7  -4  61 NW12G17   29.98S WCI  -9          
STANLEY          N/A     -5  -8  87 CALM      29.92F                  
SALMON         CLOUDY    17   5  59 W13       30.01S WCI   4          
CHALLIS        CLOUDY     9  -3  58 NW3       29.98F                  
$$

IDZ002-004-006-007-026-191800-
NORTHERN IDAHO

  
CITY           SKY/WX    TMP DP  RH WIND       PRES   REMARKS
LEWISTON       CLOUDY    26  19  74 E9        30.12F WCI  17          
LOWELL           N/A     25  21  85 N3        30.17F                  
COEUR D'ALENE  NOT AVBL                                               
MULLAN PASS    LGT SNOW   9   5  84 VRB3      29.82F FOG              
$$